Regional Weather Roundup
Issued by NWS

Home | Current Version | Previous Version | Graphics & Text | Print | Product List | Glossary On
Versions: 1 2 3 4 5 6 7 8 9 10 11 12 13 14 15 16 17 18 19 20 21 22 23 24 25 26 27 28 29 30 31 32 33 34 35 36 37 38 39 40 41 42 43 44 45 46 47 48 49 50
000
ASUS43 KMPX 170601
RWRMN
WEATHER ROUNDUP FOR MINNESOTA
NATIONAL WEATHER SERVICE TWIN CITIES/CHANHASSEN MN
1200 AM CST TUE JAN 17 2017


NOTE: "FAIR" INDICATES FEW OR NO CLOUDS BELOW 12,000 FEET WITH NO
SIGNIFICANT WEATHER AND/OR OBSTRUCTIONS TO VISIBILITY. N/A MEANS
CURRENT SKY AND/OR WEATHER CONDITIONS ARE NOT AVAILABLE.

MNZ060>063-068>070-170700-
   Twin Cities Metro

CITY           SKY/WX    TMP DP  RH WIND       PRES   REMARKS
TWIN CITIES    FRZ RAIN  30  25  81 N7        29.96F WCI  23
6HR MIN TEMP:  30; 6HR MAX TEMP:  32; 6HR PCP:  0.11;

ST PAUL        MIX PCPN  30  27  88 N7        29.97F FOG     WCI  23
CRYSTAL        MIX PCPN  29  21  72 N5        29.96F WCI  24
BLAINE         MIX PCPN  30  27  86 N6        29.96F WCI  24
LAKEVILLE      LGT SNOW  30  30 100 N5        29.94S WCI  25
EDEN PRAIRIE   MIX PCPN  30  25  81 N8        29.95S WCI  22
6HR MIN TEMP:  30; 6HR MAX TEMP:  32; 6HR PCP:  0.07;

SOUTH ST PAUL  LGT SNOW  31  30  94 N6        29.95S WCI  25
LAKE ELMO      MIX PCPN  32  30  93 N7        29.96F WCI  26
$$
MNZ001>005-007-008-013>017-022>024-027-028-170700-
   Northwest Minnesota

CITY           SKY/WX    TMP DP  RH WIND       PRES   REMARKS
BEMIDJI        CLOUDY     6   4  90 CALM      29.97S
HALLOCK        CLOUDY     3   1  92 SE8       29.99F WCI -10
ROSEAU         CLOUDY     0  -6  78 CALM      30.01R
WARROAD        CLOUDY     1  -2  85 W3        29.99S
THIEF RVR FALL CLOUDY     3   0  87 W3        30.02R FOG
CROOKSTON      CLOUDY     5   3  92 S3        30.02F
FOSSTON        CLOUDY     1  -2  85 CALM      30.00R FOG
DETROIT LAKES  CLOUDY     9   5  85 CALM      30.00S FOG
MOORHEAD       CLOUDY     3   1  92 SW3       30.04R
PARK RAPIDS    CLOUDY     1  -6  72 CALM      29.97S HAZE
MAHNOMEN       FAIR       5   2  89 S7        29.99S WCI  -7
$$
MNZ006-009>011-018-025>026-170700-
   North Central Minnesota

CITY           SKY/WX    TMP DP  RH WIND       PRES   REMARKS
BAUDETTE       CLOUDY     2  -1  88 CALM      29.96F
FLAG ISLAND    CLOUDY     3   0  85 CALM      29.98S
INTL FALLS     CLOUDY     3  -1  83 CALM      29.97F
6HR MIN TEMP:   2; 6HR MAX TEMP:  19;

WASKISH        CLOUDY     3   0  85 CALM      29.98S
BIG FORK       CLOUDY     7   3  85 CALM      29.97F
LONGVILLE      CLOUDY     7   3  85 CALM      29.98S FOG
GRAND RAPIDS   CLOUDY    12  10  92 S3        29.99F FOG
CRANE LAKE     CLOUDY     1  -2  85 CALM      30.01F
ORR            CLOUDY     9   5  85 CALM      29.95F
COOK           CLOUDY     5   3  92 CALM      29.98F
WALKER         FAIR      13  10  90 CALM      29.97F FOG
$$
MNZ012-019>021-037-170700-
   Northeast Minnesota

CITY           SKY/WX    TMP DP  RH WIND       PRES   REMARKS
DULUTH         CLOUDY    22  16  78 N6        29.98S WCI  14
6HR MIN TEMP:  17; 6HR MAX TEMP:  28;

ELY            CLOUDY     7   5  92 CALM      29.98F FOG
HIBBING        CLOUDY     2   0  91 N3        29.97F
EVELETH        CLOUDY    10   6  87 CALM      29.99F
DULUTH HARBOR  PTCLDY    21  19  93 CALM      30.02S
TWO HARBORS    CLOUDY    25  18  74 CALM      29.98S
SILVER BAY     CLOUDY    16  14  93 CALM      29.98S
GRAND MARAIS     N/A     26  23  88 N5        30.03S WCI  20
G MARAIS ARPRT SNOW      18  12  79 N3        29.98S VSB<1/4
$$
MNZ029>031-032-039>041-046>048-054>057-064-170700-
   West Central Minnesota

CITY           SKY/WX    TMP DP  RH WIND       PRES   REMARKS
FERGUS FALLS   CLOUDY    10   7  85 NW6       30.07R WCI   1
WHEATON        CLOUDY    10   7  85 W3        30.06R
MORRIS         CLOUDY     7   3  85 NW3       30.01S FOG
ALEXANDRIA     CLOUDY    13  11  92 CALM      29.99S FOG
ELBOW LAKE     MOCLDY     7   5  92 CALM      30.01F FOG
WADENA         FOG        5   1  85 CALM      29.99S VSB 3/4
GLENWOOD       CLOUDY    21  21 100 NW8       29.99S WCI  12
APPLETON       CLOUDY    19  16  86 NW6       30.02S WCI  11
ORTONVILLE     CLOUDY     9   5  85 CALM      30.03R
MADISON        CLOUDY    21  18  86 NW7       30.03R WCI  13
WILLMAR        CLOUDY    30  30 100 CALM      30.00S FOG
$$
MNZ033>034-036-042>043-049>051-058-059-170700-
   Central Minnesota

CITY           SKY/WX    TMP DP  RH WIND       PRES   REMARKS
ST CLOUD       CLOUDY    25  21  85 N3        29.99S
6HR MIN TEMP:  21; 6HR MAX TEMP:  25;

SAUK CENTRE    CLOUDY    27  26  99 NW6       29.99S FOG     WCI  20
PAYNESVILLE    CLOUDY    29  30 100 CALM      29.99S FOG
AITKIN         CLOUDY     9   3  78 CALM      29.98S
PINE RIVER     CLOUDY     7   3  85 CALM      30.02S FOG
BRAINERD       CLOUDY     9   6  88 CALM      29.99S FOG
STAPLES        CLOUDY     1   0  92 W3        29.99S FOG
LONG PRAIRIE   CLOUDY    23  19  86 CALM      29.99F FOG
LITTLE FALLS   CLOUDY    28  23  80 CALM      30.00S
LITCHFIELD     CLOUDY    30  27  86 N3        29.98F
BUFFALO        CLOUDY    28  21  74 N6        29.98F WCI  22
MAPLE LAKE     CLOUDY    29  24  80 N6        29.99S WCI  23
HUTCHINSON     CLOUDY    30  25  81 N5        29.98S WCI  25
$$
MNZ037-044-045-052-053-170700-
   East Central Minnesota

CITY           SKY/WX    TMP DP  RH WIND       PRES   REMARKS
PRINCETON      CLOUDY    28  21  74 NW3       29.99R
MORA           CLOUDY    23  18  80 N5        30.01S WCI  17
CAMBRIDGE      CLOUDY    30  19  64 N3        29.96F
RUSH CITY      CLOUDY    28  21  74 CALM      29.99S
MOOSE LAKE     CLOUDY    19  16  86 CALM      29.98F
HINCKLEY       FAIR      27  21  80 N5        29.99S WCI  21
CLOQUET        CLOUDY    18  14  86 CALM      29.98S
MCGREGOR       CLOUDY    10   9  92 CALM      30.00R
$$
MNZ071>073-080-081-089-090-097-098-170700-
   Southwest Minnesota

CITY           SKY/WX    TMP DP  RH WIND       PRES   REMARKS
MONTEVIDEO     CLOUDY    23  21  93 N10       30.02S FOG     WCI  12
GRANITE FALLS  FOG       26  25  96 W10       30.02R VSB 1   WCI  17
CANBY            N/A     23  19  87 CALM      30.02S
MARSHALL       MIX PCPN  22  21  96 NW13      30.00S FOG     WCI  10
REDWOOD FALLS  CLOUDY    31  28  89 N7        29.98S FOG     WCI  24
OLIVIA         CLOUDY    32  28  86 N3        29.97F FOG
PIPESTONE      CLOUDY    28  28 100 NE5       29.95F FOG     WCI  23
WINDOM         MIX PCPN  28  28 100 NW9       29.94F WCI  20
WORTHINGTON    FOG       27  26  96 N10       29.95F VSB 3/4 WCI  17
JACKSON        DRIZZLE   30  30 100 NW9       29.94S WCI  22
TRACY          FOG       26  26  97 NW6       29.98S VSB 3/4 WCI  20
SLAYTON        FOG       25  25  99 N6        29.98R VSB 1/2 WCI  18
$$
MNZ065>067-074>077-082>085-091>093-170700-
   South Central Minnesota

CITY           SKY/WX    TMP DP  RH WIND       PRES   REMARKS
MANKATO        LGT SNOW  31  30  96 N9        29.94F FOG     WCI  23
NEW ULM        LGT SNOW  28  27  93 N6        29.95S WCI  22
ST JAMES       LGT SNOW  30  30 100 NW9       29.96S WCI  22
FAIRMONT       MIX PCPN  31  30  96 N14       29.94S FOG     WCI  21
GLENCOE        CLOUDY    30  26  84 N5        29.96S WCI  25
FARIBAULT      LGT SNOW  30  30 100 N5        29.93S WCI  25
OWATONNA       LGT SNOW  32  30  93 N3        29.91F
WASECA         LGT SNOW  32  32 100 N5        29.93S WCI  27
ALBERT LEA     MIX PCPN  34  32  93 CALM      29.90S
$$
MNZ078>079-086>088-094>096-170700-
   Southeast Minnesota

CITY           SKY/WX    TMP DP  RH WIND       PRES   REMARKS
ROCHESTER      CLOUDY    32  32 100 NE7       29.88F FOG     WCI  26
6HR MIN TEMP:  31; 6HR MAX TEMP:  32; 6HR PCP:  0.15;

RED WING       LGT SNOW  34  30  86 CALM      29.92F
STANTON        LGT SNOW  33  31  94 N5        29.92S WCI  28
DODGE CENTER   MIX PCPN  32  30  93 CALM      29.89S
WINONA         MIX PCPN  34  34 100 CALM      29.92F
AUSTIN         MIX PCPN  32  30  93 CALM      29.89S
PRESTON        CLOUDY    31  30  96 NE3       29.88F FOG
$$
ABBREVIATIONS USED IN REMARKS
   TC - TEMPERATURES IN CELSIUS
  WCI - WIND CHILL INDEX
   HX - HEAT INDEX
  VSB - VISIBILITY
$$




USA.gov is the U.S. government's official web portal to all federal, state and local government web resources and services.